TimeEST,TemperatureF,Dew PointF,Humidity,Sea Level PressureIn,VisibilityMPH,Wind Direction,Wind SpeedMPH,Gust SpeedMPH,PrecipitationIn,Events,Conditions,WindDirDegrees,DateUTC
12:53 AM,69.1,66.9,93,30.12,10.0,NNE,4.6,-,N/A,,Clear,30,2012-11-14 05:53:00
1:53 AM,68.0,66.0,93,30.10,10.0,North,3.5,-,N/A,,Clear,10,2012-11-14 06:53:00
2:53 AM,68.0,66.0,93,30.10,10.0,NNE,3.5,-,N/A,,Clear,20,2012-11-14 07:53:00
3:53 AM,68.0,66.0,93,30.10,10.0,NNE,4.6,-,N/A,,Clear,20,2012-11-14 08:53:00
4:53 AM,66.9,64.9,93,30.10,10.0,NNE,5.8,-,N/A,,Clear,30,2012-11-14 09:53:00
5:53 AM,66.9,64.9,93,30.12,10.0,NNE,5.8,-,N/A,,Clear,30,2012-11-14 10:53:00
6:41 AM,66.2,64.4,94,30.13,10.0,NE,8.1,-,N/A,,Partly Cloudy,50,2012-11-14 11:41:00
6:53 AM,66.0,64.9,96,30.13,8.0,NE,6.9,-,N/A,,Mostly Cloudy,40,2012-11-14 11:53:00
7:53 AM,66.9,64.9,93,30.14,6.0,NE,11.5,-,N/A,,Overcast,50,2012-11-14 12:53:00
8:53 AM,66.9,64.9,93,30.17,9.0,NE,12.7,-,N/A,,Overcast,40,2012-11-14 13:53:00
9:53 AM,68.0,66.0,93,30.18,10.0,NE,8.1,-,N/A,,Overcast,40,2012-11-14 14:53:00
10:13 AM,68.0,66.2,94,30.18,10.0,NE,8.1,-,N/A,,Overcast,50,2012-11-14 15:13:00
10:53 AM,69.1,66.0,90,30.18,10.0,NE,10.4,-,N/A,,Overcast,50,2012-11-14 15:53:00
11:53 AM,70.0,66.9,90,30.16,7.0,ENE,11.5,-,N/A,,Overcast,70,2012-11-14 16:53:00
12:26 PM,71.6,66.2,83,30.15,9.0,ENE,9.2,-,N/A,,Overcast,60,2012-11-14 17:26:00
12:53 PM,72.0,66.0,81,30.14,10.0,ENE,10.4,-,N/A,,Overcast,60,2012-11-14 17:53:00
1:53 PM,72.0,66.0,81,30.12,10.0,ENE,9.2,-,N/A,,Overcast,60,2012-11-14 18:53:00
2:27 PM,73.4,66.2,78,30.11,10.0,NE,8.1,-,N/A,,Partly Cloudy,50,2012-11-14 19:27:00
2:53 PM,73.9,66.0,76,30.10,10.0,ENE,6.9,-,N/A,,Clear,60,2012-11-14 19:53:00
3:53 PM,73.9,66.0,76,30.10,10.0,ENE,5.8,-,N/A,,Clear,60,2012-11-14 20:53:00
4:53 PM,73.9,64.9,73,30.09,10.0,NE,9.2,-,N/A,,Clear,40,2012-11-14 21:53:00
5:53 PM,73.0,64.9,76,30.10,10.0,NNE,4.6,-,N/A,,Clear,20,2012-11-14 22:53:00
6:53 PM,72.0,64.9,78,30.11,10.0,NNE,5.8,-,N/A,,Clear,20,2012-11-14 23:53:00
7:53 PM,71.1,64.9,81,30.12,10.0,North,6.9,-,N/A,,Clear,10,2012-11-15 00:53:00
8:53 PM,71.1,64.9,81,30.14,10.0,ENE,10.4,-,N/A,,Clear,60,2012-11-15 01:53:00
9:53 PM,69.1,66.0,90,30.15,10.0,ENE,13.8,-,N/A,,Clear,60,2012-11-15 02:53:00
10:32 PM,68.0,64.4,88,30.14,10.0,ENE,11.5,-,N/A,,Mostly Cloudy,60,2012-11-15 03:32:00
10:42 PM,68.0,64.4,88,30.14,10.0,ENE,11.5,-,N/A,,Mostly Cloudy,60,2012-11-15 03:42:00
10:53 PM,68.0,64.9,90,30.14,10.0,NE,9.2,-,N/A,,Mostly Cloudy,50,2012-11-15 03:53:00
11:03 PM,68.0,66.2,94,30.14,10.0,ENE,9.2,-,N/A,,Partly Cloudy,60,2012-11-15 04:03:00
11:53 PM,68.0,66.0,93,30.12,10.0,ENE,11.5,-,N/A,,Scattered Clouds,60,2012-11-15 04:53:00